sat.trackr.live / text

‹ back to catalog

UNKNOWN

NORAD 82458

UNKNOWN UNKNOWN UNKNOWN

§ Identity

Operator
Country
Launch date
Launch site
Launch vehicle
Mass (kg)
RCS (m²)

External: N2YO · Heavens-Above

§ Orbital elements

Epoch: 2026-09-18T09:21:11.386368Z

Period
101.08 min
Inclination
66.5113°
Eccentricity
0.0055736
Mean motion
14.24647096 rev/d
Perigee alt
769.6 km
Apogee alt
849.7 km
Semi-major
7,187.8 km
B*
7.2814e-4
RAAN
173.7256°
Arg perigee
190.4007°
Mean anomaly
169.5939°
Rev number
64,985

§ Raw data

UNKNOWN1 82458U          26261.38971512  .00001637  00000+0  72814-3 0  99912 82458  66.5113 173.7256 0055736 190.4007 169.5939 14.24647096649856

JSON: /api/v1/satellites/82458 · /tle

For live sub-satellite position, see the globe view (requires WebGL).

§ Visibility from observer

Set your observer location to see the next 7 days of passes ≥ 10°. The values pass through the URL so the page stays shareable.

No JS? Fill the form by hand. The geolocation button needs JavaScript.